Date,TemperatureHighF,TemperatureAvgF,TemperatureLowF,DewpointHighF,DewpointAvgF,DewpointLowF,HumidityHigh,HumidityAvg,HumidityLow,PressureMaxIn,PressureMinIn,WindSpeedMaxMPH,WindSpeedAvgMPH,GustSpeedMaxMPH,PrecipitationSumIn
2013-2-1,21.7,14.1,7.9,16.3,4.9,-2.2,88,67,48,28.71,28.23,24,7,24,0.00
2013-2-2,26.4,16.3,4.5,20.0,7.2,-2.0,89,69,36,28.71,28.39,8,3,8,0.00
2013-2-3,29.5,23.1,16.0,21.4,16.6,7.3,90,76,56,28.40,28.23,15,4,15,0.00
2013-2-4,31.1,22.6,15.6,29.2,13.9,5.8,96,71,39,28.46,28.29,20,4,20,0.00
2013-2-5,38.3,32.4,29.8,32.7,28.9,24.5,97,87,68,28.37,28.26,14,4,14,0.05
2013-2-6,31.5,28.2,23.5,27.6,22.0,18.3,89,78,66,28.75,28.36,13,5,13,27.21
2013-2-7,24.6,24.6,24.6,19.4,19.4,19.4,80,80,80,28.79,28.57,2,2,2,0.00
2013-2-8,36.3,29.0,23.0,34.1,25.2,17.1,95,85,66,28.57,28.26,28,6,28,0.08
2013-2-9,30.0,25.5,20.1,18.5,13.9,10.9,83,63,47,28.79,28.44,21,9,21,0.00
2013-2-10,39.7,29.4,14.9,16.0,12.6,8.5,76,53,35,28.81,28.56,7,3,7,0.01
2013-2-11,59.7,43.6,32.0,43.3,27.5,9.2,99,62,18,28.56,28.20,27,6,27,0.11
2013-2-12,47.3,38.6,33.6,26.2,20.1,15.1,63,49,31,28.47,28.30,27,10,27,0.00
2013-2-13,38.1,33.4,30.2,31.0,23.6,17.2,98,69,52,28.41,28.13,8,2,8,0.00
2013-2-14,42.4,34.4,26.6,29.1,23.4,19.9,94,65,48,28.43,28.26,14,4,14,0.07
2013-2-15,35.8,35.3,34.9,25.2,24.5,23.7,66,65,63,28.41,28.40,3,2,3,0.00
2013-2-16,35.4,29.0,23.7,27.3,19.2,9.9,78,67,48,28.46,28.34,7,5,7,0.00
2013-2-17,21.4,17.4,14.9,10.7,8.2,5.2,80,67,54,28.53,28.31,12,8,12,0.00
2013-2-18,37.4,29.2,9.3,13.3,8.4,0.5,67,43,28,28.72,28.49,10,3,10,0.00
2013-2-19,45.7,35.0,23.2,36.7,24.5,13.0,90,67,43,28.49,28.14,18,6,18,0.06
2013-2-20,23.2,19.0,15.8,15.2,8.8,3.8,75,64,55,28.59,28.30,22,9,22,0.00
2013-2-21,26.6,19.9,15.8,13.1,9.7,5.5,74,65,53,28.74,28.54,19,6,19,0.00
2013-2-22,25.3,22.8,18.7,23.6,17.6,11.1,93,81,64,28.74,28.55,10,2,10,0.00
2013-2-23,44.8,32.9,25.2,35.7,29.2,23.4,96,87,63,28.56,28.30,6,1,6,0.02
2013-2-24,37.0,30.0,24.1,34.1,22.4,14.8,92,73,61,28.56,28.30,17,5,17,0.00
2013-2-25,40.5,31.0,22.6,18.0,15.3,10.5,76,55,32,28.64,28.55,9,3,9,0.00
2013-2-26,32.9,30.4,27.5,32.5,24.0,16.0,99,79,57,28.60,28.14,12,2,12,0.01
2013-2-27,41.2,35.5,32.0,36.2,31.7,29.5,99,87,67,28.17,28.07,16,3,16,0.27
2013-2-28,33.8,31.8,29.8,29.5,25.5,22.7,88,78,70,28.22,28.11,16,6,16,0.00